Flag for U.S.A. Weather past 2 weeks in Garden Grove, California, U.S.A.

Now
63 °F

Overcast.


Feels Like: 63 °F
Forecast: 60 / 80 °F
Wind: No wind

Location: Fullerton Municipal Airport

Current Time: May 29, 2015 at 8:22:00 AM

Latest Report: May 29, 2015 at 7:53 AM


Visibility: 6 mi

Pressure: 29.95 "Hg

Humidity: 75%

Dew point: 55 °F

Location of Garden GroveLocation

Historic Weather in Garden Grove — Graph

°F

Garden Grove temperature yesterday

Maximum temperature yesterday: 77 °F (at 2:53 PM)
Minimum temperature yesterday: 58 °F (at 3:53 AM)
Average temperature yesterday: 66 °F

Past Weeks' High & Low Weather Summary

 TemperatureHumidityPressure
High77 °F (May 28, 2:53 PM)84% (May 14, 1:53 PM)30.08 "Hg (May 14, 1:53 PM)
Low55 °F (May 15, 10:53 AM)39% (May 21, 1:53 PM)29.82 "Hg (May 15, 4:53 PM)
Average64 °F64%29.97 "Hg
* Reported May 14 6:53 AM — May 29 6:53 AM, Garden Grove, Weather by CustomWeather, © 2015

Note: Actual official high and low records may vary slightly from our data, if they occured in-between our weather recording intervals... More about our weather records

Advertising

Garden Grove weather history for previous 24 hours

 ConditionsComfort  
Time TempWeatherWind HumidityBarometerVisibility
6:53 AM
Fri, May 29
62 °FOvercast.3 mph78%29.95 "Hg6 mi
5:53 AM62 °FOvercast.3 mph78%29.93 "Hg8 mi
4:53 AM61 °FLow clouds.No wind83%29.93 "Hg7 mi
3:53 AM61 °FLow clouds.3 mph83%29.93 "Hg7 mi
2:53 AM62 °FOvercast.No wind80%29.93 "Hg7 mi
1:53 AM62 °FLow clouds.3 mph80%29.94 "Hg8 mi
12:53 AM62 °FOvercast.5 mph80%29.94 "Hg10 mi
11:53 PM
Thu, May 28
62 °FClear.No wind80%29.95 "Hg10 mi
10:53 PM63 °FClear.No wind78%29.95 "Hg10 mi
9:53 PM64 °FClear.3 mph75%29.94 "Hg10 mi
8:53 PM66 °FSunny.6 mph68%29.92 "Hg10 mi
7:53 PM67 °FSunny.6 mph66%29.91 "Hg10 mi
6:53 PM69 °FSunny.7 mph61%29.90 "Hg10 mi
5:53 PM73 °FSunny.8 mph53%29.89 "Hg10 mi
4:53 PM75 °FSunny.6 mph48%29.89 "Hg10 mi
3:53 PM76 °FSunny.6 mph47%29.91 "Hg10 mi
2:53 PM77 °FSunny.8 mph45%29.93 "Hg10 mi
1:53 PM76 °FSunny.8 mph47%29.94 "Hg10 mi
12:53 PM74 °FSunny.7 mph50%29.96 "Hg7 mi
11:53 AM72 °FSunny.3 mph53%29.98 "Hg6 mi
10:53 AM67 °FPartly sunny.5 mph61%30.00 "Hg6 mi
9:53 AM65 °FOvercast.3 mph66%30.00 "Hg6 mi
8:53 AM63 °FOvercast.No wind70%29.99 "Hg7 mi
Weather by CustomWeather, © 2015

See weather overviewHow to use our weather pages